Theta_e
338 340 343 343 343 343 342 342 342 337 334 336 340 339 337 338 339 341 341 340 340 340 340 340 340 333 334 337 338 340 340 340 340 340 337 336 343 344 344 341 337 330 327
336 338 341 342 341 341 341 340 342 343 336 335 336 343 343 340 337 338 339 338 339 341 340 339 335 338 335 336 337 337 338 339 338 338 339 343 346 344 346 339 336 336 336
336 338 340 341 340 339 339 341 342 344 343 342 341 343 342 338 337 338 336 340 340 341 339 338 340 337 339 337 340 344 344 343 346 344 337 336 340 338 337 338 337 336 336
337 336 336 339 340 339 339 341 342 343 343 343 343 342 336 337 337 335 341 340 341 339 338 337 339 338 335 339 344 343 343 344 345 348 345 339 333 335 335 335 335 336 337
339 334 336 338 340 340 340 341 342 342 343 342 342 338 334 338 338 341 342 340 341 339 333 332 330 328 328 341 342 340 342 345 346 346 344 336 328 329 330 336 339 334 333
344 336 336 336 339 340 340 340 336 335 339 338 339 337 335 338 338 342 342 340 335 336 331 330 328 327 327 328 337 342 341 345 344 343 339 327 324 329 340 331 337 335 327
344 339 337 336 338 339 338 335 333 335 337 338 338 336 338 338 341 342 341 339 339 334 332 331 330 329 327 339 344 345 345 344 345 343 345 330 327 332 332 329 329 328 328
344 343 337 337 336 336 338 336 334 336 339 338 339 338 339 339 341 342 340 339 340 332 332 331 332 330 327 333 339 343 346 347 346 347 344 328 330 332 334 335 336 337 337
343 341 337 338 336 336 336 337 336 337 340 343 342 342 342 341 342 341 338 339 338 332 331 335 336 335 333 332 339 341 341 344 345 345 346 338 333 335 335 337 338 339 340
342 341 338 337 337 336 337 338 337 338 341 343 343 342 343 342 340 339 338 339 336 334 331 336 336 335 335 344 344 344 344 343 346 346 348 336 335 334 333 334 332 334 334
340 339 340 339 337 337 338 339 338 339 341 342 343 338 337 339 334 337 338 337 335 331 335 336 339 338 341 344 347 348 348 350 348 347 346 337 334 335 334 336 337 338 338
342 343 342 340 339 339 338 339 337 338 337 336 336 341 344 344 336 334 332 334 331 331 336 341 345 346 348 346 345 348 344 347 347 347 344 332 333 336 335 336 338 338 339
342 342 341 340 340 339 338 337 337 340 342 343 344 345 345 342 332 330 334 337 336 334 339 346 348 346 347 347 347 346 346 348 345 345 342 333 335 336 337 338 339 340 340
341 339 334 338 339 338 338 336 341 340 343 344 344 346 345 340 336 337 338 343 347 344 344 346 344 346 347 344 344 345 345 346 346 344 343 335 336 337 338 339 340 341 342
337 336 331 337 339 339 337 336 339 332 332 336 340 340 342 342 340 342 343 342 346 346 346 347 348 347 343 344 343 343 344 343 345 344 342 336 341 337 341 346 346 347 344
335 334 331 331 339 338 338 337 337 337 337 333 336 342 344 344 345 345 341 342 344 349 348 350 348 349 348 347 342 341 344 342 342 343 345 344 344 345 347 348 350 347 345
337 342 338 330 337 336 337 336 336 336 340 338 341 344 345 343 342 344 343 347 346 345 346 346 347 347 347 347 342 340 344 344 345 340 338 345 346 346 347 349 350 346 347
343 343 343 341 332 337 339 337 340 341 342 343 338 339 340 342 345 346 344 345 345 344 345 344 347 348 344 346 342 342 344 343 343 343 342 344 335 342 347 351 351 347 348
343 343 342 343 338 333 336 336 340 343 344 343 344 344 335 340 346 344 340 341 345 347 345 345 345 347 349 344 341 341 342 342 342 344 343 341 339 344 348 350 350 347 348
343 344 343 345 342 340 333 335 340 344 343 344 344 344 339 335 342 346 345 344 344 347 342 341 345 347 347 346 340 341 343 344 344 345 345 345 345 348 344 345 348 342 345
343 345 344 345 344 342 340 340 345 343 344 342 341 345 344 340 337 344 347 348 349 345 347 345 342 343 350 350 344 337 343 345 343 340 338 344 346 346 348 343 348 343 344
345 346 345 345 345 343 341 343 345 345 340 344 343 342 344 344 335 339 342 348 348 349 348 346 340 340 348 348 343 340 345 343 342 341 343 344 347 346 347 348 349 343 342
344 344 344 345 345 345 342 341 345 347 343 344 345 346 345 343 342 340 337 345 346 347 347 346 344 336 341 349 349 346 345 345 343 348 343 345 345 345 345 348 347 348 347
343 345 342 343 345 345 342 341 343 346 342 342 342 345 346 341 345 340 342 343 344 347 346 344 348 347 344 342 348 351 347 349 349 349 346 347 345 346 345 347 347 349 349
346 346 345 342 343 345 342 343 345 344 344 345 343 344 343 343 345 343 345 344 345 339 344 345 349 349 344 344 342 349 347 347 348 348 345 346 343 347 345 343 348 350 351
345 346 346 345 340 344 342 345 345 342 343 348 347 344 346 347 347 346 343 346 346 343 342 342 347 348 348 344 349 348 349 347 350 349 348 345 343 347 344 344 347 350 351
Wind_Speed
18 19 18 19 17 16 16 14 16 18 17 17 17 15 14 13 12 13 11 11 11 12 11 10 9 10 11 13 15 15 16 17 17 18 18 18 18 19 18 15 15 16 16
23 21 19 18 17 16 15 14 16 17 16 15 13 10 11 10 10 10 9 9 11 11 12 11 12 13 15 16 17 17 19 19 19 17 14 16 17 16 15 14 13 15 15
22 21 20 17 16 15 15 14 16 16 14 12 10 8 9 9 9 9 10 12 11 12 13 13 14 15 17 17 19 20 19 20 21 19 15 12 14 13 13 12 12 13 13
22 21 20 18 17 16 16 15 15 15 13 12 12 9 10 11 11 12 11 12 14 13 13 14 15 17 18 20 20 21 18 15 13 12 7 8 10 12 11 11 11 12 11
18 20 20 18 18 18 17 16 15 14 12 11 12 10 11 12 12 11 12 14 14 14 12 14 15 16 19 21 21 20 19 15 13 11 4 6 6 10 11 11 11 12 10
16 18 20 18 18 20 19 18 16 14 15 14 12 12 12 13 11 12 14 14 16 14 14 15 15 16 18 20 20 19 17 15 12 5 2 6 6 9 10 10 9 6 8
20 18 20 18 19 19 18 17 15 14 13 11 9 13 14 12 11 13 14 14 14 13 14 13 14 16 17 22 21 18 17 14 12 8 6 2 5 8 8 7 7 7 6
16 20 21 18 17 16 16 15 15 13 13 12 11 13 15 13 12 13 13 13 12 14 13 13 14 13 13 16 16 19 15 14 10 4 5 3 5 6 7 7 7 6 8
10 18 22 20 18 16 15 15 13 11 11 12 14 16 14 14 13 13 13 12 14 14 12 13 13 12 13 13 16 16 15 15 8 1 4 6 4 7 10 8 9 7 7
12 16 19 20 18 18 16 14 13 12 14 14 16 19 15 13 12 11 12 12 13 11 12 13 12 13 16 16 16 14 13 13 9 4 2 5 4 10 12 12 13 11 7
19 18 16 17 19 17 13 14 15 14 16 16 18 21 19 14 9 11 12 9 12 11 12 13 11 12 14 12 10 9 6 6 6 3 2 7 2 7 10 9 13 10 9
17 16 18 15 19 19 19 18 18 17 17 20 20 18 17 13 12 10 11 10 11 12 13 10 6 7 5 3 3 6 11 9 5 4 6 4 1 4 3 5 7 10 11
21 17 13 13 19 18 20 19 20 21 22 20 18 17 16 11 11 11 13 14 14 11 10 7 2 5 7 7 9 3 6 6 4 2 6 3 1 0 2 3 5 4 4
20 19 12 16 19 17 20 19 20 23 21 20 19 15 12 10 9 10 8 6 7 7 4 3 3 2 6 8 9 7 4 8 10 1 8 4 3 3 3 5 7 8 9
19 19 15 16 17 18 22 18 20 22 17 15 17 16 15 13 11 5 5 8 5 2 2 4 3 5 5 5 2 7 5 5 4 3 7 7 8 8 8 10 9 10 11
22 19 17 15 19 23 22 20 22 18 13 13 18 14 10 8 9 7 5 7 7 4 5 0 3 4 4 4 3 6 3 0 2 4 2 4 8 10 9 10 11 13 12
23 17 17 16 19 21 20 21 18 14 9 12 12 9 13 9 12 9 11 7 5 7 4 6 9 6 5 5 2 3 3 1 2 5 6 8 7 8 9 10 10 12 14
23 18 18 16 16 19 18 20 17 15 11 10 11 6 4 12 11 8 5 6 6 12 6 5 4 1 1 6 2 2 3 4 7 6 3 4 10 10 6 5 7 9 11
22 20 19 16 17 19 17 17 16 12 6 9 11 5 8 13 10 6 6 10 4 2 9 2 4 2 11 4 9 5 2 5 8 9 11 4 13 1 2 2 7 5 9
24 19 19 18 18 16 15 19 18 15 13 9 8 9 4 12 13 7 6 4 2 4 2 4 6 5 8 5 5 9 3 6 7 7 7 9 7 1 6 3 4 6 6
23 24 21 19 21 19 18 22 18 19 17 14 12 12 9 5 18 10 7 4 5 5 3 5 7 4 3 4 5 3 9 9 9 17 18 6 7 7 5 5 5 6 4
29 26 24 21 24 25 17 22 16 13 16 12 14 15 13 10 11 12 12 8 3 2 3 2 8 9 1 4 1 2 3 4 8 3 6 6 4 5 8 7 5 1 3
34 31 29 25 24 25 19 23 19 14 13 15 16 17 17 13 15 14 14 11 7 10 8 6 5 11 7 4 2 4 1 4 8 6 5 1 6 5 1 9 5 2 4
37 30 32 32 29 26 20 26 22 16 19 20 17 15 10 14 14 12 14 13 17 13 14 11 8 9 10 8 3 3 5 5 3 3 5 5 5 11 4 2 7 1 1
38 31 29 29 31 28 27 27 24 22 18 16 19 16 12 16 16 9 10 14 15 20 14 14 14 13 14 12 10 2 1 4 8 9 8 10 10 13 3 1 4 6 4
39 34 30 28 26 28 30 28 26 25 23 16 18 19 16 17 15 10 12 17 14 15 16 18 15 17 16 14 13 8 5 4 9 10 11 12 14 11 7 2 5 8 5
Wind_Direction
155 146 140 140 140 141 138 128 129 128 125 122 113 107 109 109 110 106 110 109 108 113 117 119 115 116 110 110 104 105 106 107 111 117 122 119 115 111 109 105 114 118 120
153 150 142 139 140 137 137 131 133 134 132 132 121 104 109 107 108 116 115 109 112 112 114 114 117 114 110 108 115 118 112 109 104 100 108 114 114 113 109 109 127 121 120
157 149 143 137 136 139 141 137 136 141 140 139 129 125 106 106 115 120 118 116 116 113 113 117 117 116 112 116 116 107 106 102 96 85 92 104 114 116 118 118 119 120 123
154 148 141 135 134 135 137 137 138 142 145 138 131 127 114 111 114 123 118 115 112 112 113 119 117 118 118 119 109 96 97 101 95 90 78 57 118 119 119 122 122 117 117
154 146 138 136 134 132 133 136 138 141 144 139 143 128 122 117 120 123 121 115 116 115 119 118 115 115 122 128 114 106 97 92 102 138 120 63 113 117 125 121 122 125 127
153 151 138 137 137 135 132 131 130 130 132 126 134 125 120 121 125 122 119 118 122 118 117 111 113 116 119 136 129 120 113 111 119 124 3 63 112 120 118 110 118 116 118
167 163 142 141 139 139 134 132 130 128 134 134 132 127 121 130 128 127 124 125 122 124 118 118 116 113 127 134 132 124 121 135 149 138 44 84 131 118 119 120 123 123 127
168 173 159 149 150 147 148 144 138 134 132 141 144 137 135 133 133 132 130 129 126 125 123 118 109 110 122 139 137 129 113 110 152 110 50 108 120 126 117 125 124 129 124
153 166 164 164 151 148 143 146 135 134 132 139 135 129 132 133 134 137 134 130 130 127 125 114 103 103 105 120 132 133 124 131 140 167 68 37 127 124 115 119 118 116 130
139 162 170 169 177 155 147 140 139 144 137 133 128 120 108 116 125 133 136 132 128 132 126 110 110 109 111 116 125 131 120 123 160 208 85 16 141 114 120 110 107 98 100
115 124 139 172 177 187 184 158 145 147 141 136 133 119 107 94 117 135 135 136 125 132 122 112 109 104 115 123 112 102 101 134 173 199 314 350 177 149 123 108 109 95 81
139 133 137 144 163 166 169 156 147 145 141 142 131 127 109 101 90 125 124 124 115 125 123 121 108 71 65 59 82 96 97 111 171 161 335 344 187 199 135 70 59 25 11
131 154 162 176 174 160 156 149 147 144 136 131 123 111 120 121 101 121 124 124 119 125 119 85 38 60 44 48 22 146 132 141 199 212 354 17 122 43 319 337 335 338 324
151 175 173 153 164 165 158 147 149 150 140 138 132 136 145 147 127 125 128 126 133 121 146 102 54 76 64 59 40 41 67 202 222 261 355 25 35 33 4 350 341 341 327
151 153 154 154 161 160 163 155 151 152 148 145 152 149 157 155 172 223 123 180 172 170 134 68 35 40 99 71 43 146 54 99 116 13 359 35 23 14 15 13 4 353 344
162 146 145 143 151 150 156 152 149 142 149 145 158 155 162 176 160 152 171 215 250 247 245 300 236 284 283 282 25 210 196 109 234 264 8 355 358 353 349 353 357 2 7
167 156 152 143 146 146 150 150 157 161 142 143 154 163 145 159 160 180 202 237 199 162 183 220 237 247 268 204 333 104 154 78 307 301 280 331 300 308 291 331 345 6 13
169 162 166 158 167 171 169 166 171 170 157 149 165 150 184 156 181 165 206 146 160 160 182 225 276 27 181 215 212 311 239 225 301 331 258 327 298 291 309 322 330 1 16
176 170 172 168 167 187 187 185 173 168 187 201 190 197 199 179 188 167 89 138 179 199 187 216 17 56 43 27 197 199 289 265 257 270 255 245 325 259 326 322 326 353 17
173 178 178 173 168 169 173 176 185 196 184 202 176 202 175 203 189 199 142 167 179 282 81 205 197 155 17 79 295 218 262 302 258 270 314 270 307 122 333 298 340 352 3
180 173 176 177 179 178 177 187 180 175 176 190 211 204 207 183 194 206 227 210 217 288 10 249 262 187 33 79 9 253 295 303 303 270 293 262 293 251 282 328 243 4 309
176 175 179 192 191 192 194 192 192 178 188 204 204 202 215 219 206 224 219 195 174 175 318 321 260 251 261 82 228 323 321 28 347 359 251 272 334 14 277 245 196 197 50
186 189 190 195 198 202 203 191 191 212 199 206 211 210 208 212 216 221 223 203 218 227 229 263 245 243 250 176 222 312 321 328 334 3 173 298 14 231 250 227 234 235 43
198 201 196 198 204 208 199 189 195 209 199 208 213 208 214 209 214 230 219 228 218 225 236 232 241 251 256 230 255 354 255 329 339 320 348 334 340 316 282 271 232 278 64
198 198 197 202 205 208 201 190 201 204 201 204 216 224 240 212 218 232 217 239 254 240 231 229 230 253 245 244 248 283 275 303 325 320 345 354 7 20 137 12 217 166 179
200 199 197 200 203 202 201 196 204 207 203 204 215 221 225 222 231 240 235 233 249 255 243 235 248 249 242 242 246 231 254 293 329 300 336 350 351 47 126 323 175 190 213